Location: Unspecified
(48.2082°N, 0.0000°E)
Time: 07:30:54
(UTC+00:00)

A-11 Canister half - Pass Details

Date: 20 June 2019
Orbit: 1514 x 1685 km, 47.2° (Epoch: 17 July)

Event Time Altitude Azimuth Distance (km) Brightness Sun altitude
Rises 18:27:43 0° 289° (WNW) 4,746 13.7 13.1°
Reaches altitude 10° 18:31:38 10° 276° (W) 3,734 13.0 12.5°
Maximum altitude 18:38:22 23° 229° (SW) 2,816 10.9 11.5°
Drops below altitude 10° 18:45:02 10° 182° (S) 3,668 10.8 10.4°
Sets 18:48:52 0° 169° (SSE) 4,642 11.2 9.9°
